Theta_e
328 330 331 340 341 348 352 348 347 348 345 342 343 342 337 335 335 334 332 332 332 330 330 329 327 328 329 328 329 329 329 328 329 327 327 327 326 326 329 328 324 324 323
330 341 345 344 350 351 348 349 348 346 345 343 339 337 333 333 333 333 331 332 331 330 328 329 328 329 326 326 328 329 329 328 328 327 327 327 328 328 327 327 324 321 322
345 344 348 349 350 349 349 343 342 341 340 336 335 335 331 332 333 331 330 332 331 330 330 329 327 327 327 325 326 328 329 330 328 326 329 328 329 328 326 327 328 321 321
342 346 349 350 347 347 342 341 340 339 337 335 335 333 333 333 330 330 330 331 331 330 329 328 328 328 327 326 326 327 328 328 328 328 327 328 329 329 328 328 329 324 322
345 346 349 347 344 343 341 340 337 333 333 335 335 333 332 331 329 329 329 330 331 330 328 325 324 324 325 326 326 325 328 327 328 329 327 329 330 327 328 329 328 324 328
345 345 344 341 341 340 338 336 335 334 334 334 332 331 331 331 330 328 329 329 331 330 326 324 324 324 324 325 326 326 327 327 328 329 324 325 325 326 328 326 329 328 326
343 342 341 340 339 338 335 334 334 334 333 332 332 330 330 331 330 330 329 330 326 329 329 325 325 325 325 325 325 327 326 327 328 327 325 324 325 326 326 326 326 325 326
341 339 340 339 336 335 335 334 335 334 332 331 331 330 330 330 330 330 328 326 326 328 328 326 325 325 325 325 325 328 328 328 326 326 327 327 326 326 325 326 325 324 325
339 338 336 335 335 335 335 333 334 333 331 331 330 330 330 330 328 325 324 324 327 328 329 327 326 327 325 326 328 327 327 326 326 326 325 326 326 326 326 326 325 324 325
335 334 335 336 334 333 332 333 332 333 331 330 330 331 331 327 324 323 324 326 328 328 327 326 326 326 326 327 328 326 327 326 325 326 325 326 326 325 326 327 326 325 325
333 334 336 336 332 332 331 332 334 333 332 331 331 330 329 328 324 324 327 328 328 327 326 327 326 326 325 327 327 327 326 324 325 325 324 325 325 324 325 326 325 324 326
333 334 334 333 331 332 333 333 333 332 330 331 331 330 330 328 325 327 329 329 327 327 326 326 326 326 327 327 327 326 325 325 324 323 322 323 324 324 324 325 325 325 325
333 333 334 332 331 332 333 333 333 333 331 331 331 330 330 328 326 326 326 327 326 326 326 325 325 326 327 328 327 327 326 325 323 323 322 323 323 324 323 324 325 324 325
334 334 332 330 331 332 333 333 331 331 330 331 331 330 328 327 326 326 325 325 326 327 325 324 325 326 325 326 326 325 325 324 322 322 322 322 322 322 323 324 324 323 322
334 333 331 330 332 333 332 332 331 331 331 330 330 329 327 326 326 325 325 325 325 325 324 325 326 325 327 327 326 325 323 322 321 320 320 321 321 321 323 323 322 321 324
334 332 330 332 333 333 332 331 331 330 331 330 330 328 327 327 327 326 325 324 325 324 325 326 325 325 325 325 324 323 322 322 321 320 321 320 322 322 322 322 321 323 324
333 331 330 332 332 330 331 331 330 331 331 330 329 329 328 327 328 327 325 326 325 324 325 326 325 325 325 324 323 323 323 323 322 321 321 321 321 322 321 321 323 323 323
332 329 329 331 331 330 330 329 330 328 329 329 328 327 328 327 326 326 326 325 324 323 323 324 326 325 325 324 323 323 323 324 325 323 322 322 323 322 322 321 322 323 323
330 329 330 332 332 331 331 329 328 327 328 328 327 327 325 325 325 325 325 325 324 323 323 324 325 325 325 325 325 324 324 325 325 323 323 323 323 323 322 322 322 322 323
330 331 331 332 332 331 331 329 328 327 327 327 327 327 325 325 326 324 324 325 324 324 324 324 324 325 324 324 324 325 325 324 323 323 323 323 323 323 323 322 323 323 323
330 331 331 330 331 331 331 330 329 329 328 326 327 325 325 325 325 325 325 325 325 326 327 324 324 325 325 325 324 324 324 324 324 325 325 324 323 323 324 324 324 324 324
330 331 331 330 329 330 332 332 331 330 327 325 326 324 324 325 325 325 325 326 325 326 327 326 325 324 324 324 323 324 326 325 325 326 326 325 325 325 325 324 324 326 327
330 330 331 330 330 330 332 333 331 331 329 325 324 324 325 325 326 327 328 328 328 328 328 328 327 325 324 324 326 326 326 326 326 326 326 326 325 325 325 325 325 326 326
331 328 330 331 331 330 331 331 331 331 331 329 325 326 328 328 327 327 327 328 329 329 329 329 329 328 327 326 326 327 327 327 327 327 327 327 328 327 327 327 326 327 328
331 328 330 330 330 330 331 332 332 333 331 329 326 327 328 328 328 329 330 329 329 330 329 329 329 328 329 329 328 328 328 328 328 328 328 328 328 328 329 329 329 329 329
328 328 329 329 329 329 329 332 332 329 327 325 326 328 328 329 330 330 328 328 329 329 328 326 326 326 327 327 326 326 326 326 326 327 327 328 328 329 329 328 328 327 327
Wind_Speed
28 28 28 25 27 29 29 27 25 23 19 19 21 20 17 15 15 12 11 9 8 8 10 8 7 11 10 12 13 9 9 10 10 15 15 15 13 15 15 16 16 19 20
26 23 21 26 30 29 28 30 29 25 22 22 21 18 16 15 13 14 14 11 8 7 9 9 8 7 7 9 13 12 9 9 11 16 19 19 16 15 17 16 18 18 20
24 22 27 30 28 30 33 30 26 24 21 18 18 17 13 16 13 12 14 11 10 8 8 10 9 8 9 9 10 15 10 9 11 11 19 22 21 18 20 19 18 19 19
23 29 31 31 30 33 29 27 24 22 20 19 17 14 15 13 10 12 14 11 9 9 7 9 10 10 10 11 11 13 13 10 12 14 14 22 21 19 20 20 21 21 22
30 30 29 27 26 24 23 22 20 19 19 17 17 14 15 14 11 12 10 13 11 9 10 9 7 6 12 11 13 12 9 13 13 16 16 24 24 22 22 21 23 24 24
33 28 25 24 25 23 21 18 17 20 18 15 18 16 15 16 15 11 11 13 10 9 10 8 7 8 9 13 10 14 14 13 14 16 19 25 24 25 25 23 27 28 26
29 27 27 26 25 22 19 20 19 18 18 18 18 15 14 14 11 12 13 12 9 9 10 10 9 7 10 13 12 11 14 10 8 14 20 25 27 26 25 25 27 31 31
33 29 26 25 22 23 20 20 19 19 17 19 17 16 14 13 13 12 12 10 10 9 9 9 7 6 8 12 10 13 15 13 9 10 11 16 22 23 22 25 29 31 26
29 25 27 24 24 23 21 20 18 20 19 18 16 15 14 13 13 11 11 11 9 11 11 6 3 7 13 14 14 16 18 14 12 9 9 11 17 21 24 27 29 32 30
25 26 27 24 18 20 22 20 19 17 19 18 16 13 13 12 11 10 10 10 11 8 6 5 3 12 15 16 15 15 17 16 13 13 13 17 13 16 22 24 28 34 36
25 27 27 22 12 18 19 19 17 16 17 16 15 12 10 9 11 11 9 8 5 6 6 6 7 13 16 16 13 12 14 15 12 12 16 18 17 16 24 23 24 26 31
25 26 23 19 16 17 19 16 15 16 18 17 17 13 12 10 11 11 10 7 5 7 8 8 10 14 17 15 13 12 9 14 10 13 18 19 17 18 20 22 24 24 26
26 23 25 23 19 14 16 14 18 15 16 18 18 15 14 11 12 12 10 8 8 7 6 7 12 18 16 15 15 15 10 11 13 17 21 21 19 17 18 18 19 21 23
27 30 26 20 18 15 12 14 14 14 13 16 17 13 9 11 14 13 10 8 8 8 5 8 17 21 18 15 15 11 8 6 10 16 18 18 17 19 20 18 19 19 15
29 28 22 20 21 18 17 18 15 14 13 13 17 13 12 10 10 10 9 6 6 6 7 15 24 23 22 23 20 14 10 9 10 15 18 19 19 22 22 21 18 22 11
29 25 22 23 20 15 16 18 17 13 12 13 13 13 10 9 10 9 10 8 7 9 11 23 24 23 23 26 18 15 12 10 10 13 16 18 22 24 22 21 24 19 15
28 22 21 22 18 16 16 18 18 16 14 15 15 13 11 7 10 9 11 12 9 10 14 21 23 24 25 23 18 15 13 11 10 14 16 18 21 22 21 24 24 17 13
24 18 19 22 19 15 14 15 14 16 19 19 17 12 10 9 9 10 13 13 13 10 14 17 20 23 25 22 21 16 14 13 10 13 16 16 19 25 23 22 22 17 14
22 19 21 22 20 18 16 12 10 17 18 20 18 14 11 11 11 12 14 13 10 10 12 14 16 19 20 20 21 16 14 12 11 11 13 13 18 23 24 21 17 16 13
22 23 24 24 24 21 15 14 17 17 17 19 18 15 14 14 16 16 15 15 12 10 9 10 13 17 18 18 19 15 16 12 12 12 10 12 18 21 19 17 17 16 16
25 24 26 23 23 18 16 18 18 17 16 19 18 14 11 12 15 16 13 14 13 10 8 8 11 14 16 16 17 15 13 13 14 12 10 9 13 17 15 14 14 15 16
25 22 25 23 19 19 20 20 16 18 18 20 20 17 14 17 17 18 15 14 14 12 10 10 10 11 9 12 14 13 11 12 12 12 11 14 15 15 14 15 18 20 19
24 22 24 26 21 19 22 20 20 19 17 23 22 21 22 21 23 19 12 7 8 9 10 11 10 10 13 13 12 11 10 10 10 11 12 12 9 11 14 17 17 20 20
22 24 23 17 28 23 23 23 25 23 19 21 22 24 22 18 15 12 10 9 8 11 8 12 11 11 13 14 14 12 12 12 12 13 15 17 16 13 11 13 15 17 24
29 26 22 9 26 25 21 25 28 24 27 25 24 26 22 18 15 12 12 11 10 12 16 15 13 16 15 14 16 16 18 16 16 14 13 17 19 15 14 11 13 13 14
26 22 27 18 23 24 25 29 33 29 27 29 28 25 21 20 22 20 18 16 15 14 13 14 15 15 15 13 11 11 11 9 9 10 10 11 12 18 18 17 17 17 18
Wind_Direction
219 215 221 220 212 203 198 202 205 204 186 179 181 182 187 208 221 216 208 205 218 249 238 228 222 221 230 226 216 213 210 204 196 174 184 178 168 176 171 182 183 184 179
208 210 218 193 189 187 191 198 193 186 178 178 185 184 194 208 216 213 208 198 220 243 228 221 214 215 225 232 218 207 206 193 198 180 175 172 172 178 183 181 177 179 181
196 201 185 185 183 188 187 180 175 172 171 179 180 191 199 209 209 214 204 202 218 230 236 225 221 224 232 214 217 215 214 205 208 207 179 174 178 183 186 184 177 177 177
187 181 175 179 177 179 174 170 172 175 174 175 185 189 194 195 196 175 189 206 221 244 225 220 220 227 230 237 214 207 194 210 210 206 191 177 173 175 179 177 173 175 174
175 174 174 174 179 176 173 177 181 177 171 178 184 188 190 190 186 198 208 221 236 238 223 207 206 240 246 232 215 205 199 215 207 207 199 181 176 176 179 173 175 172 167
171 166 172 171 172 173 171 167 166 163 174 184 184 191 192 197 192 206 222 236 246 242 216 213 216 286 235 215 204 203 215 219 214 207 196 186 182 183 181 185 177 166 164
163 169 172 169 170 170 168 163 163 166 166 183 184 186 189 193 209 206 223 238 255 232 223 231 268 267 225 203 203 201 199 192 219 250 205 193 189 191 188 181 181 174 173
161 164 167 168 169 161 163 163 169 169 174 185 193 196 195 201 213 216 222 224 232 222 220 223 274 241 194 187 184 177 175 182 183 153 185 193 193 193 196 187 183 177 175
155 163 164 164 169 171 164 168 173 178 185 196 206 202 209 211 209 213 219 217 210 213 213 229 259 187 161 156 169 165 169 178 168 164 167 170 176 195 191 184 184 181 174
157 158 168 171 170 169 169 175 182 190 194 198 199 201 194 200 203 202 204 204 210 214 195 205 173 161 163 166 170 178 179 180 181 171 160 162 170 185 195 189 188 184 180
157 167 176 173 150 152 168 186 185 189 190 191 193 183 190 200 197 186 192 185 199 195 189 182 174 166 166 171 172 174 184 171 169 171 162 161 164 176 189 183 188 195 189
163 174 172 160 151 168 177 183 190 178 181 180 175 179 199 195 190 186 188 184 193 181 170 173 172 168 162 174 173 173 192 168 174 164 159 156 164 172 182 185 188 193 204
167 167 160 154 157 176 179 182 175 177 184 179 182 194 191 186 188 187 189 184 181 179 171 167 173 167 162 169 175 171 177 175 174 164 161 160 164 162 167 175 190 192 204
159 154 155 160 164 166 173 176 165 173 183 185 184 183 199 195 188 187 183 178 186 190 188 179 170 165 164 163 151 158 166 155 175 165 159 160 166 167 164 163 163 163 172
161 158 158 164 168 164 165 163 173 187 187 185 187 187 177 178 188 192 192 192 208 197 182 154 162 163 164 161 154 169 165 156 158 166 171 172 170 166 163 163 161 161 165
157 154 158 165 172 171 173 172 173 185 184 182 187 181 175 188 188 182 189 201 183 173 169 165 164 166 168 169 171 174 173 170 173 174 174 174 172 164 165 170 168 167 162
155 150 159 172 168 167 176 183 177 175 178 179 176 171 185 189 198 202 184 186 182 167 167 175 175 178 176 177 177 180 175 174 183 180 179 176 182 176 173 172 173 179 183
156 158 171 173 167 169 162 168 181 179 170 166 171 172 182 183 182 183 179 173 164 157 170 173 185 189 187 186 181 184 187 185 188 188 193 194 191 187 183 181 186 197 205
157 166 176 172 177 172 161 150 160 174 176 169 170 178 171 159 152 157 167 171 159 150 162 172 180 182 186 188 190 189 192 195 201 206 209 208 200 198 201 199 203 210 221
166 181 181 171 177 167 159 154 163 172 172 182 183 181 164 162 157 149 159 168 157 137 126 154 165 174 179 182 181 186 194 195 194 191 191 201 198 199 205 210 217 228 235
174 182 180 175 168 170 166 167 169 171 174 176 174 168 156 152 145 144 148 159 162 153 136 131 151 157 172 176 179 177 174 178 182 189 189 184 187 191 200 212 231 238 238
182 172 175 177 172 173 174 174 172 159 150 156 155 154 147 140 131 139 151 154 155 159 136 132 124 154 155 168 167 170 180 181 181 191 195 199 204 213 222 228 241 244 249
182 171 173 179 183 181 180 175 166 166 157 152 152 149 138 135 136 136 138 144 156 199 201 184 161 156 165 164 172 174 175 184 193 197 204 211 225 234 237 242 243 242 252
187 184 192 192 195 190 182 173 165 174 181 162 159 156 150 150 169 189 195 192 195 202 185 189 180 175 172 178 192 193 200 213 223 227 233 239 248 250 263 265 271 271 273
190 189 190 196 186 178 169 175 171 185 175 169 166 166 172 184 193 188 204 180 183 188 185 190 199 188 194 214 217 226 232 233 238 241 239 244 238 240 240 242 251 258 268
181 188 185 187 166 175 166 159 152 151 152 159 163 170 174 180 186 183 176 171 165 164 174 161 160 177 184 191 205 208 205 214 236 232 240 244 232 234 245 256 270 282 288